User: anonymous
Location: Caltech
(34.1382°N, 118.1253°W)
Time: 02:19:25
(UTC-07:00)
Language:

Iridium 68 - Orbit

View from above orbital plane
View from above orbital plane
View from above satellite
View from above satellite

Ground track
Ground track

The orbit data is extracted from the following two-line orbital elements,

1 25291U 98021G   14112.23395430  .00000495  00000-0  16980-3 0  7439
2 25291 086.3976 345.5176 0002049 105.1621 254.9801 14.34214663839881
Epoch (UTC): 22 April 2014 05:36:53
Eccentricity: 0.0002049
inclination: 86.3976°
perigee height: 776 km
apogee height: 779 km
right ascension of ascending node: 345.5176°
argument of perigee: 105.1621°
revolutions per day: 14.34214663
mean anomaly at epoch: 254.9801°
orbit number at epoch: 83988

The dashed part of the orbit path shows where the satellite is in the earth's shadow,  

DLR